[[{"header":{"parameterUnit":"m.s-1","parameterCategory":1,"la1":30.2991,"la2":30.254,"lo1":-89.0895,"lo2":-89.0444,"dy":0.0017,"dx":0.0017,"nx":28,"ny":28,"refTime":"2025-01-27T03:00:00:Z","depth":0,"parameterNumber":2,"parameterNumberName":"U-component_of_WINDS"},"data":[0,0,0,0,0,0,0,0,0,0,0,0,0,0,0,0,0,0,0,0,0,0,0,0,0,0,0,0,0,0,0,0,0,0,0,0,0,0,0,0,0,0,0,0,0,0,0,0,0,0,0,0,0,0,0,0,0,0,0.3659,0.366,0,0.3713,0.3713,0.3714,0.3745,0.3745,0.3746,0.3746,0.38,0.3801,0.3803,0,0,0,0,0,0,0,0,0,0,0,0,0,0.3585,0.3586,0.3659,0.366,0.366,0.3713,0.3713,0.3714,0.3745,0.3745,0.3746,0.3746,0.38,0.3801,0.3803,0,0,0,0,0,0,0,0,0,0,0,0,0,0.3626,0.3587,0.3659,0.3682,0.3685,0.3712,0.3713,0.3714,0.3745,0.3745,0.3746,0.3746,0.3799,0.3801,0.3803,0.3811,0,0,0.3809,0.381,0,0,0,0,0,0,0,0,0.3623,0.3628,0.3678,0.3681,0.3684,0.3722,0.3707,0.3747,0.3745,0.3722,0.3746,0.3746,0.3774,0.3778,0.3788,0.3814,0.3816,0.3809,0.3811,0.3811,0.3812,0,0,0,0,0,0,0,0.362,0.3626,0.368,0.3679,0.3682,0.369,0.3696,0.3715,0.3746,0.3724,0.3727,0.3733,0.3776,0.3786,0.3789,0.3817,0.3809,0.3811,0.3812,0.3813,0.3855,0.3855,0,0,0,0,0,0,0.3614,0.3624,0.3679,0.3682,0.3653,0.3692,0.3698,0.371,0.3746,0.3752,0.3732,0.3734,0.3782,0.3787,0.3791,0.3805,0.3811,0.3813,0.3814,0.3855,0.3855,0.3855,0,0,0,0,0,0,0.3612,0.3618,0.3676,0.3653,0.3661,0.3693,0.3705,0.3711,0.3721,0.3752,0.3758,0.3737,0.3783,0.3789,0.3807,0.3807,0.3814,0.3816,0.3855,0.3855,0.3855,0.383,0,0,0,0,0,0,0.361,0.3618,0.3621,0.3653,0.3663,0.369,0.3705,0.3712,0.3724,0.3727,0.3758,0.3764,0.3783,0.3804,0.3809,0.381,0.3818,0.3855,0.3855,0.3855,0.3831,0.3829,0.3828,0,0,0,0,0,0.3607,0.3611,0.3621,0.3627,0.3667,0.369,0.3695,0.3718,0.3724,0.3728,0.3749,0.3763,0.3806,0.3805,0.3811,0.3813,0.3855,0.3855,0.3855,0.3832,0.383,0.3828,0,0,0,0,0,0,0.3577,0.3616,0.3627,0.3641,0.3662,0.3695,0.37,0.3715,0.3734,0.3736,0.3763,0.377,0.3786,0.3801,0.3799,0.3824,0.3832,0.3833,0.3813,0.3811,0.3809,0.3805,0.3819,0,0,0,0,0,0.3572,0.3587,0.3621,0.363,0.364,0.3669,0.368,0.3695,0.3718,0.3727,0.3749,0.3771,0.379,0.3801,0.382,0.3834,0.3842,0.3838,0.3837,0.3835,0.3835,0.3845,0.3844,0.3854,0.3854,0.3854,0,0,0.3562,0.3585,0.3593,0.3625,0.3643,0.3659,0.3676,0.3691,0.3704,0.373,0.3748,0.3765,0.3791,0.3808,0.3816,0.3821,0.3835,0.3835,0.3833,0.3835,0.3845,0.3844,0.3843,0.3854,0.3854,0.3854,0,0,0.3551,0.357,0.3581,0.3599,0.3627,0.3646,0.3649,0.368,0.3693,0.3712,0.3732,0.3748,0.3779,0.3797,0.3811,0.381,0.3824,0.3815,0.3806,0.3815,0.3815,0.3814,0.3814,0.3814,0.3816,0.3816,0.3816,0,0.3535,0.3559,0.3585,0.36,0.3614,0.3639,0.365,0.3667,0.3699,0.3709,0.3714,0.3755,0.3775,0.3796,0.3796,0.3806,0.3811,0.3811,0.3813,0.3812,0.3812,0.3813,0.3813,0.3815,0.3815,0.3815,0.3815,0,0.3538,0.3555,0.3561,0.3592,0.3607,0.362,0.3648,0.366,0.3675,0.3694,0.3714,0.3739,0.3764,0.3771,0.3785,0.3795,0.3797,0.3807,0.3817,0.381,0.3811,0.3811,0.3813,0.3813,0.3814,0.3814,0,0,0.3508,0.3555,0.3557,0.3572,0.3605,0.3619,0.3634,0.3659,0.367,0.3692,0.3706,0.3733,0.3743,0.3758,0.3776,0.3784,0.3783,0.3793,0.3794,0.3791,0.3796,0.3788,0.3788,0.3793,0.3793,0.3793,0.3794,0,0.3503,0.3531,0.3555,0.3574,0.3591,0.3616,0.363,0.3652,0.3671,0.3688,0.3709,0.3728,0.374,0.3749,0.3759,0.3781,0.3784,0.3781,0.3806,0.3807,0.3799,0.3789,0.378,0.378,0.3795,0.3795,0.3795,0,0.3499,0.3521,0.3542,0.3576,0.3584,0.3595,0.3621,0.3637,0.3664,0.3677,0.3695,0.3714,0.3732,0.374,0.3766,0.3764,0.3776,0.3789,0.3789,0.3792,0.38,0.3791,0.378,0.378,0.3796,0.3796,0.3796,0,0.3476,0.3511,0.3528,0.3541,0.358,0.3588,0.3605,0.3632,0.3646,0.3669,0.3678,0.3703,0.3716,0.3735,0.3761,0.3764,0.3785,0.3794,0.3796,0.3796,0.3799,0.3798,0.3789,0.3807,0.3807,0.3807,0.3807,0,0.3467,0.3478,0.3518,0.3529,0.3544,0.3572,0.3586,0.3606,0.363,0.3645,0.3669,0.3683,0.3716,0.3734,0.3754,0.3774,0.3779,0.3791,0.3796,0.3789,0.3787,0.3796,0.3797,0.3807,0.3807,0.3807,0.3807,0,0.3442,0.3469,0.349,0.3526,0.3536,0.3545,0.3577,0.3589,0.361,0.3629,0.3636,0.3668,0.3692,0.3719,0.3751,0.3765,0.3782,0.379,0.3773,0.3776,0.3776,0.3776,0.3773,0.3774,0.3791,0.3791,0.379,0,0.3434,0.3444,0.3482,0.3494,0.3511,0.353,0.3545,0.3574,0.3589,0.3622,0.363,0.3655,0.3677,0.3713,0.374,0.3765,0.3773,0.3771,0.3777,0.377,0.3774,0.3773,0.3775,0.3769,0.3768,0.3768,0.3768,0,0.3417,0.3431,0.3451,0.3477,0.3495,0.3516,0.3539,0.3548,0.3582,0.3598,0.3622,0.3639,0.3673,0.3698,0.3727,0.3745,0.3762,0.3766,0.3768,0.376,0.375,0.3756,0.3768,0.3765,0.3766,0.3766,0.3766,0.3766,0.3401,0.3411,0.344,0.3463,0.3484,0.3505,0.3519,0.3542,0.3563,0.3593,0.3609,0.3633,0.3662,0.3703,0.3721,0.3741,0.3747,0.3749,0.375,0.375,0.3748,0.3747,0.3746,0.3746,0.3746,0.3746,0.3746,0,0.3385,0.3406,0.3426,0.3458,0.3477,0.3492,0.3519,0.3534,0.3555,0.358,0.3601,0.363,0.3656,0.3685,0.3713,0.3723,0.3732,0.3729,0.3729,0.3733,0.3741,0.3737,0.3722,0.3722,0.3722,0.3722,0.3722,0.3722,0.3379,0.3398,0.3416,0.3446,0.3467,0.3491,0.3505,0.3526,0.3546,0.3578,0.3599,0.3619,0.3646,0.3676,0.3701,0.3709,0.3718,0.3713,0.3723,0.373,0.3732,0.3734,0.373,0.3715,0.3715,0.3714,0.3714,0.3714]},{"header":{"parameterUnit":"m.s-1","parameterCategory":1,"la1":30.2991,"la2":30.254,"lo1":-89.0895,"lo2":-89.0444,"dy":0.0017,"dx":0.0017,"nx":28,"ny":28,"refTime":"2025-01-27T03:00:00:Z","depth":0,"parameterNumber":3,"parameterNumberName":"V-component_of_WINDS"},"data":[0,0,0,0,0,0,0,0,0,0,0,0,0,0,0,0,0,0,0,0,0,0,0,0,0,0,0,0,0,0,0,0,0,0,0,0,0,0,0,0,0,0,0,0,0,0,0,0,0,0,0,0,0,0,0,0,0,0,-3.9932,-3.9932,0,-3.9955,-3.9955,-3.9955,-3.9913,-3.9912,-3.991,-3.9909,-3.9929,-3.9931,-3.9932,0,0,0,0,0,0,0,0,0,0,0,0,0,-3.9848,-3.985,-3.9932,-3.9932,-3.9932,-3.9955,-3.9955,-3.9956,-3.9913,-3.9912,-3.991,-3.9908,-3.9928,-3.993,-3.9932,0,0,0,0,0,0,0,0,0,0,0,0,0,-3.9879,-3.985,-3.9932,-3.9914,-3.9913,-3.9955,-3.9955,-3.9956,-3.9914,-3.9912,-3.9909,-3.9907,-3.9927,-3.993,-3.9933,-3.9992,0,0,-3.9941,-3.9942,0,0,0,0,0,0,0,0,-3.9877,-3.9882,-3.9916,-3.9915,-3.9914,-3.9929,-3.9933,-3.9968,-3.9914,-3.9913,-3.9909,-3.9906,-3.993,-3.9933,-3.9941,-3.9993,-3.9994,-3.9941,-3.9943,-3.9944,-3.9945,0,0,0,0,0,0,0,-3.9875,-3.9881,-3.9941,-3.9917,-3.9915,-3.9904,-3.9906,-3.9939,-3.9933,-3.9913,-3.991,-3.9914,-3.9929,-3.9939,-3.9942,-3.9994,-3.9941,-3.9944,-3.9946,-3.9947,-4.0097,-4.01,0,0,0,0,0,0,-3.9876,-3.9879,-3.994,-3.9941,-3.989,-3.9907,-3.991,-3.9926,-3.9933,-3.9932,-3.9915,-3.9912,-3.9935,-3.9938,-3.9942,-4.0013,-3.9944,-3.9947,-3.9948,-4.0095,-4.0098,-4.0101,0,0,0,0,0,0,-3.9874,-3.9882,-3.9939,-3.991,-3.9916,-3.9911,-3.993,-3.9928,-3.9938,-3.9934,-3.9933,-3.9927,-3.9934,-3.9938,-3.9981,-4.0013,-3.9948,-3.9951,-4.0092,-4.0096,-4.0099,-4.0156,0,0,0,0,0,0,-3.9872,-3.9881,-3.9904,-3.9911,-3.9918,-3.9978,-3.9932,-3.993,-3.9943,-3.9938,-3.9945,-3.9944,-3.9932,-3.9977,-3.9984,-4.0016,-3.9953,-4.0089,-4.0094,-4.0098,-4.0151,-4.0161,-4.0169,0,0,0,0,0,-3.9869,-3.9917,-3.9905,-3.9913,-3.9946,-3.998,-3.9984,-3.9971,-3.9946,-3.9968,-3.9967,-3.9943,-4.0009,-3.9982,-3.9989,-4.0023,-4.0087,-4.0093,-4.0098,-4.0147,-4.0159,-4.0169,0,0,0,0,0,0,-3.9912,-3.9918,-3.9904,-3.9957,-3.9969,-3.9973,-4.0001,-3.9984,-4.0002,-3.9996,-3.9979,-3.9981,-4.0027,-4.0029,-3.9998,-4.0081,-4.0044,-4.0051,-4.0078,-4.009,-4.0099,-4.0097,-3.9955,0,0,0,0,0,-3.9928,-3.9956,-3.9959,-4.0005,-4.0012,-4.0006,-4.0019,-4.0009,-4.002,-4.0024,-4.0025,-4.0036,-4.0059,-4.0074,-4.0095,-4.0151,-4.0152,-4.0178,-4.0187,-4.0195,-4.0201,-4.0232,-4.0244,-4.0118,-4.0118,-4.0118,0,0,-3.9961,-3.9967,-3.9985,-4.0014,-4.0021,-4.005,-4.001,-4.0041,-4.0062,-4.0028,-4.0069,-4.0071,-4.0082,-4.0132,-4.0154,-4.0135,-4.0236,-4.0201,-4.0207,-4.0209,-4.0239,-4.0251,-4.0261,-4.0122,-4.0121,-4.012,0,0,-4.0035,-4.0042,-4.0082,-4.0092,-4.0106,-4.0102,-4.0112,-4.012,-4.012,-4.0161,-4.0137,-4.0162,-4.0201,-4.0211,-4.022,-4.0302,-4.0282,-4.0309,-4.0357,-4.0387,-4.0397,-4.0406,-4.0436,-4.0447,-4.0315,-4.0315,-4.0316,0,-4.0073,-4.0117,-4.0104,-4.0139,-4.0153,-4.0126,-4.0167,-4.0176,-4.0195,-4.0205,-4.0184,-4.0235,-4.024,-4.0293,-4.0313,-4.0321,-4.0332,-4.0308,-4.0397,-4.0406,-4.0414,-4.0442,-4.0454,-4.0319,-4.0318,-4.0318,-4.0318,0,-4.0164,-4.0194,-4.0225,-4.0247,-4.0264,-4.0301,-4.0295,-4.0313,-4.0302,-4.03,-4.0344,-4.0349,-4.0372,-4.0384,-4.0372,-4.0436,-4.0424,-4.04,-4.0362,-4.0429,-4.0456,-4.0467,-4.0324,-4.0322,-4.0321,-4.0321,0,0,-4.0263,-4.0281,-4.0292,-4.0303,-4.0318,-4.0341,-4.0377,-4.0402,-4.0419,-4.0433,-4.0464,-4.0499,-4.0479,-4.049,-4.048,-4.0507,-4.0573,-4.048,-4.048,-4.0498,-4.0645,-4.0663,-4.0675,-4.056,-4.0562,-4.0563,-4.0644,0,-4.0338,-4.0403,-4.0394,-4.0456,-4.0485,-4.0462,-4.0494,-4.0506,-4.0506,-4.053,-4.053,-4.0556,-4.0526,-4.0534,-4.0559,-4.0559,-4.0602,-4.0553,-4.0587,-4.0589,-4.0586,-4.0689,-4.0707,-4.0783,-4.0654,-4.0656,-4.0657,0,-4.0432,-4.0454,-4.052,-4.0533,-4.0545,-4.0574,-4.0597,-4.062,-4.0634,-4.0632,-4.0647,-4.0632,-4.0669,-4.0631,-4.0681,-4.0648,-4.0662,-4.0664,-4.0667,-4.067,-4.0627,-4.0695,-4.0807,-4.0819,-4.0673,-4.0672,-4.0671,0,-4.05,-4.0545,-4.0591,-4.0601,-4.0617,-4.0638,-4.0645,-4.0657,-4.0674,-4.0693,-4.0704,-4.0727,-4.0739,-4.0757,-4.0749,-4.0722,-4.0802,-4.0762,-4.0801,-4.0802,-4.0818,-4.0817,-4.0935,-4.0827,-4.0827,-4.0827,-4.0826,0,-4.0584,-4.0625,-4.0622,-4.065,-4.0696,-4.0687,-4.0732,-4.0736,-4.0748,-4.0776,-4.0757,-4.0783,-4.0771,-4.0797,-4.0791,-4.0834,-4.084,-4.0839,-4.0837,-4.0841,-4.0841,-4.085,-4.0844,-4.083,-4.0829,-4.0828,-4.0828,0,-4.0666,-4.0666,-4.0715,-4.0727,-4.0732,-4.0765,-4.0775,-4.0802,-4.0802,-4.0838,-4.0846,-4.0845,-4.0875,-4.0869,-4.0901,-4.0897,-4.0952,-4.0943,-4.0948,-4.0946,-4.0985,-4.0982,-4.1112,-4.1129,-4.101,-4.1011,-4.1012,0,-4.072,-4.0752,-4.0769,-4.0788,-4.0798,-4.0828,-4.0846,-4.0838,-4.0857,-4.0877,-4.0901,-4.093,-4.0952,-4.1001,-4.1002,-4.1027,-4.1019,-4.1063,-4.1022,-4.1026,-4.1021,-4.1019,-4.1023,-4.1071,-4.1072,-4.1073,-4.1074,0,-4.0816,-4.0815,-4.0842,-4.087,-4.0892,-4.0913,-4.0931,-4.0948,-4.0942,-4.0964,-4.0996,-4.1013,-4.1048,-4.1077,-4.1101,-4.1107,-4.109,-4.1088,-4.1098,-4.1102,-4.1104,-4.1105,-4.097,-4.1084,-4.1083,-4.1082,-4.1082,-4.1082,-4.0886,-4.0914,-4.0932,-4.0963,-4.0978,-4.0996,-4.1023,-4.1028,-4.1055,-4.1084,-4.1077,-4.1114,-4.1128,-4.1159,-4.1169,-4.1196,-4.118,-4.1195,-4.1198,-4.1202,-4.1208,-4.1101,-4.12,-4.12,-4.12,-4.12,-4.1199,0,-4.0981,-4.0993,-4.1022,-4.1051,-4.1076,-4.106,-4.1081,-4.1102,-4.1135,-4.1152,-4.1176,-4.1213,-4.1242,-4.1247,-4.1274,-4.1296,-4.1289,-4.1303,-4.1301,-4.1303,-4.122,-4.1209,-4.1308,-4.1308,-4.1308,-4.1308,-4.1308,-4.1308,-4.1034,-4.1082,-4.1084,-4.1139,-4.1149,-4.1187,-4.12,-4.1217,-4.1231,-4.1275,-4.1299,-4.1304,-4.1316,-4.1345,-4.137,-4.1371,-4.1382,-4.14,-4.1398,-4.132,-4.1309,-4.1299,-4.1288,-4.1402,-4.1402,-4.1478,-4.1479,-4.148]}]]